Location: Fontevrault
(47.1823°N, 0.0493°E)
Time: 04:41:16
(UTC+00:00)

Meteor 1-21 Rocket - Pass Details

Date: 30 October 2021
Orbit: 834 x 907 km, 81.2° (Epoch: 07 December)

Event Time Altitude Azimuth Distance (km) Brightness Sun altitude
Rises 04:29:14 0° 141° (SE) 3,411 7.8 -22.7°
Reaches altitude 10° 04:32:25 10° 123° (ESE) 2,494 7.4 -22.1°
Maximum altitude 04:36:00 18° 83° (E) 2,030 7.1 -21.5°
Drops below altitude 10° 04:39:39 10° 43° (NE) 2,537 7.3 -20.9°
Sets 04:42:55 0° 25° (NNE) 3,496 7.8 -20.4°
